Tracking 19795 objects as of 19-Jul-2019
HD Live streaming from Space Station
objects crossing your sky now

FENGYUN 1C DEB

Track FENGYUN 1C DEB now!
10-day predictions


NORAD ID: 37057
Int'l Code: 1999-025EER
Perigee: 710.2 km
Apogee: 1,138.5 km
Inclination: 99.2 °
Period: 103.4 minutes
Semi major axis: 7295 km
RCS: 0.0122 m2 (small)
Launch date: May 10, 1999
Source: People's Republic of China (PRC)
Launch site: Taiyaun Space Center, China (TSC)

Note: This is SATELLITE DEBRIS
aabbcc
Your satellite tracking list
Your tracking list is empty




NASA's NSSDC Master Catalog

Two Line Element Set (TLE):
1 37057U 99025EER 19198.89363104  .00000065  00000-0  57906-4 0  9991
2 37057  99.1530 231.4818 0293551  66.1423 297.0207 13.93265842520204
Source of the keplerian elements: AFSPC